Location: Mauries
(43.6188°N, 0.3322°W)
Time: 19:17:03
(UTC+00:00)

IGS 5A - Pass Details

Date: 14 January 2026
Orbit: 551 x 554 km, 97.4° (Epoch: 8 January)

Event Time Altitude Azimuth Distance (km) Brightness Sun altitude
Rises 06:02:16 0° 10° (N) 2,738 6.8 -15.9°
Reaches altitude 10° 06:04:25 10° 8° (N) 1,839 5.9 -15.5°
Maximum altitude 06:08:22 72° 285° (WNW) 584 3.2 -14.8°
Drops below altitude 10° 06:12:18 10° 200° (SSW) 1,824 5.9 -14.2°
Sets 06:14:25 0° 199° (SSW) 2,713 6.8 -13.8°
